TimeCDT,TemperatureF,Dew PointF,Humidity,Sea Level PressureIn,VisibilityMPH,Wind Direction,Wind SpeedMPH,Gust SpeedMPH,PrecipitationIn,Events,Conditions,WindDirDegrees,DateUTC
12:54 AM,42.1,28.9,60,30.18,10.0,WNW,13.8,20.7,N/A,,Clear,290,2012-10-05 05:54:00
1:54 AM,41.0,28.9,62,30.19,10.0,West,12.7,-,N/A,,Clear,280,2012-10-05 06:54:00
2:54 AM,39.9,28.9,65,30.18,10.0,WNW,10.4,-,N/A,,Clear,290,2012-10-05 07:54:00
3:54 AM,39.0,28.0,65,30.18,10.0,West,10.4,-,N/A,,Partly Cloudy,280,2012-10-05 08:54:00
4:54 AM,37.0,27.0,67,30.17,10.0,West,8.1,-,N/A,,Partly Cloudy,270,2012-10-05 09:54:00
5:54 AM,36.0,26.1,67,30.17,10.0,West,8.1,-,N/A,,Clear,260,2012-10-05 10:54:00
6:54 AM,37.0,24.1,59,30.17,10.0,WNW,10.4,-,N/A,,Clear,290,2012-10-05 11:54:00
7:54 AM,37.0,24.1,59,30.18,10.0,West,11.5,-,N/A,,Clear,280,2012-10-05 12:54:00
8:54 AM,39.9,24.1,53,30.17,10.0,WNW,13.8,20.7,N/A,,Clear,290,2012-10-05 13:54:00
9:54 AM,43.0,21.9,43,30.18,10.0,WNW,10.4,25.3,N/A,,Clear,300,2012-10-05 14:54:00
10:54 AM,46.0,21.9,39,30.18,10.0,West,13.8,21.9,N/A,,Clear,280,2012-10-05 15:54:00
11:54 AM,46.9,23.0,39,30.17,10.0,WNW,16.1,21.9,N/A,,Clear,290,2012-10-05 16:54:00
12:54 PM,48.9,21.9,35,30.15,10.0,WNW,16.1,25.3,N/A,,Clear,290,2012-10-05 17:54:00
1:54 PM,50.0,21.9,33,30.13,10.0,WNW,19.6,28.8,N/A,,Clear,290,2012-10-05 18:54:00
2:54 PM,48.9,21.9,35,30.13,10.0,WNW,19.6,27.6,N/A,,Clear,290,2012-10-05 19:54:00
3:54 PM,50.0,21.9,33,30.13,10.0,West,16.1,28.8,N/A,,Clear,280,2012-10-05 20:54:00
4:54 PM,51.1,23.0,33,30.13,10.0,WNW,15.0,26.5,N/A,,Mostly Cloudy,290,2012-10-05 21:54:00
5:54 PM,46.9,23.0,39,30.13,10.0,WNW,13.8,28.8,N/A,,Mostly Cloudy,300,2012-10-05 22:54:00
6:54 PM,45.0,23.0,42,30.15,10.0,NW,18.4,25.3,N/A,,Overcast,310,2012-10-05 23:54:00
7:54 PM,44.1,23.0,43,30.17,10.0,NW,15.0,26.5,N/A,,Overcast,310,2012-10-06 00:54:00
8:54 PM,42.1,23.0,47,30.18,10.0,WNW,17.3,26.5,N/A,,Overcast,300,2012-10-06 01:54:00
9:54 PM,42.1,23.0,47,30.17,10.0,WNW,16.1,25.3,N/A,,Overcast,300,2012-10-06 02:54:00
10:54 PM,42.1,23.0,47,30.16,10.0,WNW,18.4,25.3,N/A,,Overcast,290,2012-10-06 03:54:00
11:54 PM,41.0,23.0,49,30.15,10.0,WNW,13.8,23.0,N/A,,Overcast,300,2012-10-06 04:54:00